DELTA 1 DEB, 7202

Orbit data source: Space-Track

DELTA 1 DEB, 7202 is space debris in SSO originally from a launch on Tue, 06 Nov 1973 UTC launched from the Air Force Western Test Range (AFWTR). Debris objects in space refer to the collection of defunct objects orbiting the Earth. Examples of debris include non-operational satellites, rocket bodies, and fragments generated from explosions, collisions, or faulty payload assembly.

Loading next visibility...
Identifier
7202, 1973-086FL
Orbit
SSO
Country
Flag of USUS
Related business
Manufacturer
Unknown
Mission
Spacecraft
Bus & Motor
Unknown
Mass
Unknown
Launch date (UTC)
1973-11-06 (52 years ago)
Launch vehicle
Unknown
Launch site
Air Force Western Test Range (AFWTR)
Object type
Payload
Rocket body
Debris
Shape & HBR
Unknown shape, 0.2 m
Radar Cross Section
Small (<0.1 m²)

Expand to show TLE details & history
Last TLE update: 7 hours ago

TLE from 7 hours ago
0 DELTA 1 DEB
1 07202U 73086FL  25293.33783631  .00000783  00000-0  15670-2 0  9999
2 07202 102.0209 229.4249 0290001 240.2090 277.9351 13.24281916489785
Epoch: 2025-10-20T08:06Z
TLE epoch observation values (Epoch: 2025-10-20T08:06:29.057Z)
Latitude
24.60125°
Longitude
-95.67136°
Altitude
1,147.2 km
Speed
7.293 km/s
True Right ascension
03h 39m 57s
True Declination
24° 28' 41"
Sunlit
Object was in full shadow at epoch
Visualization orbit readout
Latitude
Unknown
Longitude
Unknown
Altitude
Unknown
Speed
Unknown
Apparent Right ascension
Unknown
Apparent Declination
Unknown
Sunlit
N/A
Visualization observer readout
Local Sidereal Time
10:09:46
Azimuth
Unknown
Elevation
Unknown
Doppler factor
Unknown
Orbital elements
Apogee altitude
1,384.65 km
Perigee altitude
947.095 km
Semi-major axis
7,544.01 km
Eccentricity
0.029
Inclination
102.0209°
RAAN
229.4249°
Arg. of periapsis
240.209°
True anomaly
274.62904°
Mean anomaly
277.9351°
Eccentric anomaly
276.2835°
Mean motion
3.31238 °/min
Orbital period
108.68 mins
BSTAR
0.001567
Loading maneuver chart data...
Computing Atmospheric mass density...

Documentation

Showing up to 5 results
|